Stations météo

Publicité
Boulogne, France (7002): Température de l'air & dewpoint: 18.01.2021 06:00:00 - 24.01.2021 06:00:00 (CET)Boulogne, France (7002): Vitesse du vent & gusts: 18.01.2021 06:00:00 - 24.01.2021 06:00:00 (CET)Boulogne, France (7002): Direction du vent: 18.01.2021 06:00:00 - 24.01.2021 06:00:00 (CET)Boulogne, France (7002): reduced air pressure: 18.01.2021 06:00:00 - 24.01.2021 06:00:00 (CET)Boulogne, France (7002): visibility: 18.01.2021 06:00:00 - 24.01.2021 06:00:00 (CET)Boulogne, France (7002): Quantités de précipitations: 18.01.2021 06:00:00 - 24.01.2021 06:00:00 (CET)
Date & Time tt [°C] td [°C] ff [km/h] ff [knt] fx [km/h] fx [knt] dd ppp [hPa] vv [km] rr [mm]
24.01.2021 06:00:00 2,8 -1,6 14 7 25 13 WNW 1000,1 - 0,0
24.01.2021 05:00:00 2,8 -1,6 17 9 31 17 WNW 1000,3 - 0,0
24.01.2021 04:00:00 2,8 -1,0 19 10 38 20 WNW 1000,2 - 0,0
24.01.2021 03:00:00 2,5 -0,8 22 12 35 19 WNW 999,8 - 0,0
24.01.2021 02:00:00 2,3 -0,6 18 10 35 19 NW 999,6 - 0,0
24.01.2021 01:00:00 2,3 -1,0 21 11 39 21 NW 998,9 15 0,0
24.01.2021 00:00:00 2,5 -0,9 21 12 37 20 NW 998,3 - 0,0
23.01.2021 23:00:00 2,9 -0,9 22 12 42 23 NW 998,0 - 0,0
23.01.2021 22:00:00 3,4 -0,6 22 12 37 20 NW 997,4 18 0,0
23.01.2021 21:00:00 3,3 -0,9 24 13 43 23 NNW 996,9 - 0,0
23.01.2021 20:00:00 3,3 -0,9 26 14 47 26 NNW 996,5 - 0,0
23.01.2021 19:00:00 3,7 0,9 21 11 34 18 NW 995,9 - 0,0
23.01.2021 18:00:00 3,5 0,7 19 10 34 18 NNW 995,5 - 0,0
23.01.2021 17:00:00 3,9 0,9 16 9 27 15 NNW 995,1 - 0,0
23.01.2021 16:00:00 4,0 1,7 14 8 26 14 N 994,5 - 0,0
23.01.2021 15:00:00 4,3 2,0 7 4 14 8 NNE 994,1 - 0,0
23.01.2021 14:00:00 4,2 2,2 6 3 18 10 NNE 993,9 - 0,0
23.01.2021 13:00:00 4,3 2,6 6 4 17 9 NE 994,1 - 0,0
23.01.2021 12:00:00 3,9 2,7 8 5 18 10 NE 994,1 - 0,0
23.01.2021 11:00:00 3,9 2,7 6 3 12 6 NE 993,9 - 0,0
23.01.2021 10:00:00 3,7 2,4 7 4 15 8 E 994,3 14 0,0
23.01.2021 09:00:00 3,2 1,2 8 4 12 7 SE 994,3 - 0,0
23.01.2021 08:00:00 4,1 1,5 4 2 18 10 S 994,4 - 0,0
23.01.2021 07:00:00 4,7 1,7 13 7 27 15 SW 994,3 - 0,0
23.01.2021 06:00:00 4,5 1,3 16 9 31 17 WSW 994,7 - 0,0
23.01.2021 05:00:00 5,0 1,7 19 11 36 19 WSW 994,9 - 0,0
23.01.2021 04:00:00 5,0 1,8 24 13 42 23 W 995,1 - 0,0
23.01.2021 03:00:00 5,4 2,4 31 17 53 29 W 995,1 - 0,0
23.01.2021 02:00:00 6,1 1,8 35 19 58 31 W 995,0 - 0,0
23.01.2021 01:00:00 5,9 3,4 24 13 41 22 SW 995,1 20 0,0
23.01.2021 00:00:00 5,4 3,2 31 17 58 31 SSW 995,2 - 0,0
22.01.2021 23:00:00 4,8 3,6 11 6 30 16 S 995,2 - 0,2
22.01.2021 22:00:00 4,5 3,3 24 13 61 33 WSW 995,6 7 1,4
22.01.2021 21:00:00 4,7 2,9 13 7 37 20 S 995,6 - 0,6
22.01.2021 20:00:00 6,0 3,8 23 12 38 20 SSW 995,7 - 0,0
22.01.2021 19:00:00 5,6 2,4 28 15 57 31 SW 995,8 - 0,0
22.01.2021 18:00:00 6,5 2,9 20 11 34 18 SW 995,7 - 0,0
22.01.2021 17:00:00 6,5 2,4 21 11 29 16 WSW 995,6 - 0,0
22.01.2021 16:00:00 6,5 2,6 17 9 28 15 SW 995,4 20 0,0
22.01.2021 15:00:00 6,7 1,4 18 10 29 15 WSW 995,2 - 0,0
22.01.2021 14:00:00 6,4 1,9 16 9 26 14 W 995,3 - 0,0
22.01.2021 13:00:00 6,3 2,7 17 9 28 15 W 995,3 20 0,0
22.01.2021 12:00:00 6,0 1,7 19 10 27 15 W 994,8 - 0,0
22.01.2021 11:00:00 5,8 2,8 16 9 24 13 W 994,2 - 0,0
22.01.2021 10:00:00 5,2 2,0 14 8 23 13 W 993,2 18 0,0
22.01.2021 09:00:00 5,2 2,0 14 7 27 15 WNW 992,7 - 0,0
22.01.2021 08:00:00 5,3 1,9 14 8 28 15 WNW 991,9 - 0,0
22.01.2021 07:00:00 5,3 1,9 18 10 27 15 WNW 991,2 6 0,0
22.01.2021 06:00:00 5,5 2,1 18 10 32 18 WNW 990,8 - 0,0
22.01.2021 05:00:00 5,8 2,1 25 13 38 20 W 990,4 - 0,0
22.01.2021 04:00:00 5,8 2,4 25 13 40 21 W 990,1 - 0,0
22.01.2021 03:00:00 5,8 2,6 23 12 44 24 W 989,5 - 0,0
22.01.2021 02:00:00 6,0 2,8 35 19 54 29 W 988,8 - 0,2
22.01.2021 01:00:00 6,6 3,7 26 14 44 24 WSW 988,0 - 0,0
22.01.2021 00:00:00 5,8 3,0 22 12 31 17 W 987,4 - 0,0
21.01.2021 23:00:00 4,5 3,5 14 8 23 12 W 986,5 - 0,4
21.01.2021 22:00:00 4,0 3,1 13 7 34 18 NNW 985,9 6 0,8
21.01.2021 21:00:00 4,3 3,4 19 10 36 19 N 984,9 - 0,6
21.01.2021 20:00:00 4,3 3,4 9 5 17 9 N 984,3 - 1,6
21.01.2021 19:00:00 5,0 4,0 10 5 18 10 NNE 984,7 - 3,5
21.01.2021 18:00:00 5,5 4,5 9 5 33 18 SSE 986,1 - 2,4
21.01.2021 17:00:00 5,9 4,4 20 11 55 30 S 987,9 - 1,0
21.01.2021 16:00:00 6,7 4,7 29 16 64 35 SSW 988,9 - 0,0
21.01.2021 15:00:00 7,5 4,4 31 17 65 35 SSW 989,6 - 0,0
21.01.2021 14:00:00 7,5 4,6 35 19 69 37 SSW 990,3 - 0,0
21.01.2021 13:00:00 5,6 4,4 36 19 105 57 SW 990,9 14 0,8
21.01.2021 12:00:00 6,9 4,4 36 20 83 45 SSW 990,9 - 0,2
21.01.2021 11:00:00 7,2 5,2 38 20 82 44 SW 991,1 - 0,0
21.01.2021 10:00:00 6,9 3,0 55 30 89 48 SW 990,7 14 0,2
21.01.2021 09:00:00 7,1 4,7 37 20 79 43 SW 990,4 - 0,0
21.01.2021 08:00:00 7,8 4,6 46 25 77 42 SW 989,9 - 0,0
21.01.2021 07:00:00 7,6 1,9 44 24 80 43 WSW 989,3 - 0,0
21.01.2021 06:00:00 7,3 2,2 48 26 87 47 WSW 988,5 - 0,0
21.01.2021 05:00:00 7,1 1,8 53 28 96 52 W 987,6 - 0,0
21.01.2021 04:00:00 6,8 2,7 55 30 97 52 W 986,2 - 0,0
21.01.2021 03:00:00 7,5 3,4 55 30 100 54 WSW 983,8 - 0,4
21.01.2021 02:00:00 8,0 5,6 61 33 106 58 WSW 981,5 - 1,6
21.01.2021 01:00:00 9,8 6,9 56 30 100 54 S 979,8 10 0,0
21.01.2021 00:00:00 10,1 5,9 50 27 97 53 S 980,9 - 0,0
20.01.2021 23:00:00 9,7 5,5 44 24 73 39 S 982,5 - 0,2
20.01.2021 22:00:00 9,3 4,5 37 20 74 40 S 984,7 10 0,0
20.01.2021 21:00:00 9,7 4,5 41 22 72 39 S 986,6 - 0,0
20.01.2021 20:00:00 9,5 4,7 38 21 74 40 S 987,5 - 0,0
20.01.2021 19:00:00 8,5 6,1 37 20 65 35 S 988,8 6 0,6
20.01.2021 18:00:00 8,5 5,4 36 19 71 39 S 989,3 - 0,4
20.01.2021 17:00:00 9,8 4,2 40 22 77 42 S 989,7 - 0,0
20.01.2021 16:00:00 9,6 4,4 40 22 71 38 S 990,4 - 0,0
20.01.2021 15:00:00 9,2 4,2 34 19 69 37 S 991,1 - 0,0
20.01.2021 14:00:00 8,9 4,1 37 20 65 35 S 992,5 - 0,0
20.01.2021 13:00:00 8,7 4,7 34 18 64 35 S 993,6 - 0,0
20.01.2021 12:00:00 8,9 5,8 36 20 64 35 S 994,2 - 0,0
20.01.2021 11:00:00 9,2 5,9 31 17 71 39 S 995,2 - 0,0
20.01.2021 10:00:00 7,9 6,2 38 20 68 37 S 995,8 6 0,2
20.01.2021 09:00:00 8,0 6,5 36 19 65 35 S 996,5 - 0,2
20.01.2021 08:00:00 8,4 5,9 36 20 68 37 S 997,0 - 0,0
20.01.2021 07:00:00 8,4 6,0 32 18 58 31 S 997,4 - 0,0
20.01.2021 06:00:00 8,4 7,2 33 18 66 35 SSW 997,9 - 0,0
20.01.2021 05:00:00 8,0 6,9 31 17 63 34 SSW 998,6 - 0,2
20.01.2021 04:00:00 8,3 6,6 36 19 66 36 S 999,0 - 0,0
20.01.2021 03:00:00 7,8 6,4 36 19 66 36 S 999,8 - 0,0
20.01.2021 02:00:00 8,0 6,8 34 19 63 34 S 1000,3 - 0,0
20.01.2021 01:00:00 7,9 6,8 36 19 68 37 S 1001,2 6 0,0
20.01.2021 00:00:00 8,0 6,5 38 21 71 38 S 1001,9 - 0,2
19.01.2021 23:00:00 8,1 5,9 35 19 70 38 S 1002,3 - 0,0
19.01.2021 22:00:00 8,0 5,8 36 19 74 40 S 1003,3 6 0,0
19.01.2021 21:00:00 8,2 6,0 33 18 67 36 S 1004,1 - 0,0
19.01.2021 20:00:00 8,4 6,4 36 19 68 37 S 1005,0 - 0,0
19.01.2021 19:00:00 8,2 6,5 37 20 67 36 S 1005,4 5 0,0
19.01.2021 18:00:00 8,2 6,7 32 17 61 33 SSW 1006,3 - 0,0
19.01.2021 17:00:00 8,5 7,1 36 20 67 36 SSW 1006,9 - 0,0
19.01.2021 16:00:00 8,5 7,7 38 21 74 40 SW 1007,5 - 0,0
19.01.2021 15:00:00 8,4 8,1 32 18 66 36 SW 1007,9 - 0,0
19.01.2021 14:00:00 8,4 8,3 40 22 74 40 SW 1008,6 - 0,0
19.01.2021 13:00:00 8,5 8,4 50 27 79 43 SW 1008,8 2,0 0,0
19.01.2021 12:00:00 8,8 8,7 52 28 81 44 SW 1009,4 - 0,2
19.01.2021 11:00:00 9,0 8,9 54 29 79 42 WSW 1009,2 - 0,0
19.01.2021 10:00:00 9,1 8,8 51 28 74 40 WSW 1009,1 2,0 0,0
19.01.2021 09:00:00 9,0 8,7 53 29 85 46 SW 1009,1 - 0,2
19.01.2021 08:00:00 8,9 8,6 53 29 84 46 SW 1008,8 - 0,2
19.01.2021 07:00:00 8,2 7,9 47 26 81 44 SW 1009,2 5 1,2
19.01.2021 06:00:00 7,9 7,5 52 28 87 47 SW 1009,7 - 1,0
19.01.2021 05:00:00 7,4 6,7 42 23 76 41 SSW 1010,4 - 1,6
19.01.2021 04:00:00 7,3 6,2 39 21 76 41 SSW 1011,4 5 0,2
19.01.2021 03:00:00 7,2 6,1 36 20 75 40 SSW 1012,8 - 0,0
19.01.2021 02:00:00 7,2 6,3 34 18 61 33 SSW 1014,3 - 0,0
19.01.2021 01:00:00 6,6 5,9 29 16 61 33 SSW 1015,7 - 0,2
19.01.2021 00:00:00 6,6 5,4 27 15 59 32 S 1016,7 - 0,0
18.01.2021 23:00:00 7,0 4,6 26 14 53 28 SSW 1017,8 - 0,0
18.01.2021 22:00:00 7,2 4,3 34 18 58 31 SW 1018,7 10 0,0
18.01.2021 21:00:00 7,3 4,4 29 16 57 31 SW 1019,5 - 0,0
18.01.2021 20:00:00 7,7 4,8 38 21 59 32 SW 1020,1 - 0,2
18.01.2021 19:00:00 7,2 5,3 34 19 58 32 WSW 1020,8 15 0,0
18.01.2021 18:00:00 7,2 5,3 26 14 44 24 WSW 1021,2 - 0,2
18.01.2021 17:00:00 7,5 4,6 29 16 49 26 WSW 1021,6 - 0,0
18.01.2021 16:00:00 7,6 4,0 21 12 40 22 WSW 1021,9 - 0,0
18.01.2021 15:00:00 7,5 3,7 21 11 39 21 WSW 1022,2 - 0,0
18.01.2021 14:00:00 7,4 4,2 22 12 37 20 W 1023,1 - 0,0
18.01.2021 13:00:00 7,1 3,9 26 14 42 23 W 1023,8 - 0,0
18.01.2021 12:00:00 7,1 4,2 21 11 45 24 W 1024,3 - 0,0
18.01.2021 11:00:00 7,1 3,9 25 13 42 23 W 1024,5 - 0,0
18.01.2021 10:00:00 6,9 3,7 28 15 38 21 W 1024,7 20 0,0
18.01.2021 09:00:00 6,8 3,6 27 15 38 21 W 1024,9 - 0,0
18.01.2021 08:00:00 6,4 3,5 25 13 37 20 W 1024,8 - 0,0
18.01.2021 07:00:00 6,2 3,5 19 10 33 18 W 1025,1 - 0,0
18.01.2021 06:00:00 6,2 3,0 20 11 36 19 W 1025,2 - 0,0

tt = Température de l'air
td = dewpoint
ff = Vitesse du vent
fx = gusts
dd = Direction du vent
ppp = reduced air pressure
vv = visibility
rr = Quantités de précipitations

stations d'obs. à proximité